GFSSGP_500_spd_087.txt.gz
Wind_Speed
28 27 25 28 31 31 28 30 30 29 28 26 25 25 24 23 23 22 25 28 26 28 28 32 28 37 26 34 35 30 18 25 19 16 19 19 25 23 22 20 15 10 8 5 3 6 8 10 12
27 27 27 30 30 28 28 29 31 28 27 23 22 20 19 20 21 24 25 24 26 27 31 36 38 33 33 33 38 33 22 22 24 20 17 21 24 24 22 17 13 10 9 6 5 8 9 11 11
27 27 26 28 27 26 28 30 32 28 24 21 20 20 21 24 24 23 23 22 24 27 30 36 40 42 38 32 34 35 28 26 26 23 20 25 29 27 24 18 15 11 7 7 8 9 10 9 11
27 26 25 25 26 29 28 31 28 23 23 21 20 21 21 22 23 22 23 22 26 32 36 36 39 45 43 42 36 32 32 22 24 27 21 26 32 29 21 20 17 15 12 10 8 9 10 12 15
27 25 23 23 26 29 30 32 22 20 20 19 20 23 23 24 23 25 24 21 23 24 26 34 42 38 42 40 37 35 27 28 24 29 26 24 24 23 22 22 19 16 15 12 10 12 13 16 19
27 22 22 24 25 29 32 29 18 20 19 20 22 21 20 22 25 24 24 21 18 25 24 25 29 30 43 39 30 25 30 27 23 23 30 32 39 27 23 20 20 17 15 12 13 13 13 17 20
26 22 22 23 25 29 31 26 18 16 19 23 24 19 18 21 20 22 22 22 21 25 14 16 13 22 24 43 34 25 28 29 27 21 27 32 35 31 28 26 22 19 17 16 14 13 13 17 21
25 24 21 20 24 27 30 26 18 15 16 24 24 18 19 20 21 21 20 20 18 22 8 13 10 16 23 39 38 35 28 21 25 28 24 32 33 32 29 24 22 20 19 15 11 12 15 18 21
24 22 21 23 25 25 27 23 17 14 19 24 24 21 20 21 21 22 25 16 12 18 3 5 9 17 25 31 41 34 38 35 23 29 28 39 34 34 30 28 24 17 18 15 16 16 19 21 20
21 20 20 23 25 24 23 20 19 17 21 26 25 23 22 24 25 25 17 11 10 12 10 9 2 10 9 26 38 33 41 38 32 25 34 40 43 37 32 27 24 22 19 18 16 19 22 22 18
19 19 19 27 24 25 24 17 17 19 25 26 23 20 24 25 28 23 12 7 7 4 6 4 3 6 11 17 36 46 51 34 32 32 36 43 40 35 30 25 24 21 21 19 16 18 20 20 20
19 20 21 24 27 26 25 17 14 19 22 22 22 22 25 25 16 9 8 7 5 4 6 2 4 6 9 13 27 40 45 43 42 39 35 45 43 37 32 30 29 27 26 20 17 16 18 19 23
18 20 21 23 26 25 20 14 13 19 20 19 19 20 21 17 13 11 9 8 5 9 9 5 5 4 7 13 22 26 38 37 45 39 40 44 39 42 35 33 32 28 27 25 22 23 25 23 23
20 20 21 24 24 23 16 9 12 19 21 20 18 20 19 17 17 15 11 7 8 8 9 7 9 3 5 11 21 24 31 44 43 43 43 45 42 40 40 37 34 31 30 28 28 26 27 28 26
23 19 21 26 23 23 17 8 10 16 20 20 18 15 16 18 17 16 11 10 9 9 10 9 10 7 5 7 18 24 27 46 44 46 44 47 41 38 43 38 37 34 32 25 22 26 27 27 25
25 21 21 28 21 21 19 10 11 15 21 18 16 12 14 14 14 15 14 12 12 12 11 12 11 11 6 5 15 20 31 40 39 43 44 33 41 42 51 47 33 35 34 30 28 29 28 26 22
23 22 24 28 22 22 22 11 12 14 22 21 15 11 12 15 16 17 14 11 14 14 14 12 11 13 7 12 24 31 30 37 27 45 42 36 31 42 44 38 35 33 31 33 28 30 27 26 21
24 26 26 24 27 24 22 13 14 13 19 24 19 10 10 12 14 16 18 10 8 13 14 13 12 13 13 15 25 24 26 27 36 39 39 35 21 21 24 24 25 26 27 28 29 25 27 24 22
32 30 23 21 31 26 21 13 13 11 16 23 20 14 9 12 11 13 17 11 4 9 12 18 16 15 15 14 17 25 15 23 28 32 31 27 22 26 26 23 24 27 28 27 30 27 23 23 21
32 31 21 20 29 28 23 13 15 11 15 23 21 19 8 11 9 11 14 13 3 7 12 14 17 17 18 21 14 15 17 17 22 26 25 27 28 27 28 30 30 31 26 24 28 25 22 18 18
32 30 24 25 30 29 23 14 14 16 16 21 24 21 11 8 11 7 10 11 7 2 4 8 11 16 16 22 20 19 14 18 19 23 22 22 28 27 28 30 30 25 22 21 20 19 18 19 20
36 26 30 29 32 29 24 10 10 16 18 19 25 21 13 8 9 6 7 9 5 4 4 4 4 8 14 18 17 18 17 19 23 26 28 23 27 24 22 23 19 15 13 13 18 19 20 21 24
29 33 34 35 35 30 22 16 7 14 16 18 22 22 16 10 10 9 4 6 6 3 4 3 4 5 8 11 11 11 10 8 7 13 20 25 21 19 16 16 13 12 15 18 18 20 23 26 28
34 33 37 35 37 29 19 15 4 15 11 21 21 21 19 12 10 11 5 4 4 4 3 5 5 5 5 7 8 10 9 8 8 9 11 12 13 13 14 13 12 15 16 19 21 22 22 25 27
36 33 37 40 40 25 24 24 11 12 14 18 19 14 14 10 8 11 7 6 4 4 1 3 4 6 7 7 7 8 8 9 8 9 10 11 11 10 11 12 14 15 17 19 21 21 24 27 28
33 35 39 40 37 31 33 27 12 14 18 16 19 15 13 9 12 8 9 9 7 6 7 6 5 5 7 8 9 8 10 11 12 12 12 12 12 13 14 16 15 16 18 20 23 26 29 32 35
34 38 32 37 40 39 37 28 16 15 17 17 22 21 17 16 13 9 8 8 8 5 6 8 8 9 10 9 11 11 11 13 13 14 14 13 15 15 15 16 17 18 21 22 27 30 32 31 35
39 38 38 42 41 40 37 32 22 15 15 18 22 24 21 20 17 15 14 14 14 14 14 15 15 12 12 10 11 13 15 16 15 15 15 15 16 16 16 19 19 21 22 26 29 35 43 42 45
42 43 42 43 42 41 40 38 24 19 22 20 25 26 27 25 24 17 19 18 20 18 20 21 20 20 16 14 14 14 16 17 17 17 17 18 18 17 18 20 23 25 28 36 43 38 42 46 32
42 44 45 48 45 45 42 41 30 21 17 23 21 30 27 28 31 29 22 20 17 18 16 15 19 23 21 20 19 19 18 20 24 25 26 24 23 23 21 21 23 26 28 38 38 44 33 30 26

GFSSGP_500_spd_093.txt.gz
Wind_Speed
26 25 25 27 27 26 14 20 17 26 28 28 30 32 27 23 29 28 28 26 25 26 22 20 21 20 18 25 33 35 34 31 27 23 24 28 31 25 23 27 28 28 28 24 23 19 18 16 12
24 25 27 28 23 12 12 32 24 28 28 32 32 29 25 27 32 32 28 28 27 28 27 25 24 25 23 26 32 38 36 33 30 26 22 23 25 25 26 30 30 28 29 26 23 19 16 13 15
25 25 28 26 24 12 11 28 26 30 32 33 30 29 25 26 32 30 29 31 28 29 30 30 29 29 31 31 34 38 43 37 31 27 26 22 22 26 28 30 36 30 27 23 19 18 18 16 14
26 26 27 23 20 16 16 24 24 28 34 31 30 26 27 25 30 31 29 31 30 29 30 32 31 33 36 38 36 31 36 41 35 26 24 26 23 24 28 37 36 28 26 21 21 19 18 18 19
26 26 27 27 22 17 20 22 24 26 31 32 28 25 26 28 27 28 28 29 29 31 29 28 31 29 32 41 39 40 37 38 36 32 25 22 20 25 31 42 33 25 21 22 19 19 17 15 14
25 24 25 23 15 23 21 23 28 27 30 29 26 25 22 23 27 29 29 31 30 29 26 28 33 34 37 45 42 51 47 33 36 37 29 25 23 29 28 32 28 24 23 22 20 19 17 16 16
24 24 23 23 23 22 24 23 28 28 29 28 29 25 22 26 24 30 28 29 29 28 28 30 33 38 36 38 38 37 40 55 40 34 30 25 25 26 32 31 29 26 24 22 22 19 17 18 16
22 24 24 23 24 22 25 22 27 28 28 30 28 25 25 27 30 29 29 30 31 30 29 32 28 25 22 25 29 31 38 43 31 33 31 28 24 30 32 36 33 30 27 25 23 21 18 18 17
22 24 25 24 24 25 24 24 26 28 26 24 28 23 25 26 28 30 31 30 30 27 24 27 24 15 19 19 22 33 43 42 48 39 33 33 27 29 29 37 41 34 30 25 21 21 19 20 20
22 25 24 27 24 24 27 24 26 29 26 24 24 25 20 26 28 32 29 26 22 15 19 19 11 9 12 16 12 24 40 49 44 40 40 34 30 30 31 38 35 32 30 25 22 23 21 20 19
24 23 27 28 27 25 24 25 26 27 25 23 21 20 24 27 30 28 24 24 22 17 14 13 11 15 8 10 13 23 33 47 47 45 36 29 28 27 34 37 31 31 29 26 23 23 25 21 20
26 25 28 29 30 26 23 23 24 26 24 21 20 19 21 27 26 25 20 22 24 25 17 14 12 13 14 8 10 17 30 35 50 30 30 29 30 30 32 37 37 34 31 28 26 24 23 21 20
29 27 28 30 31 30 25 24 22 26 24 23 20 19 20 22 25 24 21 20 24 25 23 14 17 15 16 17 13 18 34 25 44 39 25 27 31 30 40 39 39 37 35 29 30 27 24 23 22
31 30 27 28 31 32 29 24 25 23 23 23 22 19 18 20 23 22 21 20 21 24 24 18 19 14 15 18 19 19 22 30 38 46 34 28 34 33 40 40 40 37 36 33 33 28 26 24 23
34 32 28 27 29 31 33 21 26 23 22 21 23 18 17 20 20 22 20 22 20 22 24 19 19 16 14 17 18 20 25 36 45 44 38 41 35 36 40 41 40 39 40 36 34 31 29 28 27
36 36 29 25 32 30 31 21 24 23 21 21 22 19 14 16 19 21 22 23 24 20 22 20 20 16 13 15 19 22 28 34 49 48 37 39 42 36 39 41 44 45 41 41 38 36 30 30 28
39 35 30 28 33 32 30 22 17 25 24 23 21 20 12 14 17 21 22 23 24 20 19 19 19 16 13 17 20 21 24 32 37 47 39 37 36 33 37 37 41 46 45 44 41 38 33 35 31
32 33 34 30 25 38 29 23 21 23 28 22 20 22 13 12 15 18 21 22 23 17 16 17 16 16 12 18 22 12 22 22 28 43 45 42 40 35 34 39 39 46 46 44 46 45 39 36 34
35 37 38 29 29 42 33 27 27 23 25 28 19 21 15 12 13 15 20 20 21 16 12 13 14 14 14 13 11 9 13 23 23 33 41 47 47 43 39 41 37 41 46 44 46 50 46 34 37
42 41 42 35 32 44 35 31 27 23 24 27 22 21 18 12 11 15 17 17 18 16 11 11 12 14 13 13 13 8 11 15 20 35 41 38 43 45 41 38 37 41 43 43 48 36 35 32 36
46 44 43 35 35 47 41 33 26 24 25 29 25 20 21 13 11 13 15 14 14 13 11 12 12 13 14 13 11 16 7 12 17 22 32 37 36 33 34 33 28 25 22 21 21 24 27 27 23
42 41 47 44 43 44 38 35 27 23 20 29 25 19 20 14 10 12 13 11 9 11 9 9 10 11 14 15 12 13 12 5 7 14 31 36 35 36 28 27 27 19 20 22 20 20 21 15 15
37 35 44 40 45 45 41 36 24 25 23 28 25 18 20 14 11 11 11 10 7 8 7 5 7 8 10 13 12 14 14 13 9 10 10 13 27 31 31 26 21 15 14 13 17 14 12 12 13
34 33 38 41 41 47 44 33 26 17 17 21 25 18 18 15 13 10 9 9 8 6 8 6 5 6 6 4 9 11 13 15 14 13 15 14 14 15 16 17 16 13 11 11 13 13 12 11 12
35 31 35 36 35 43 33 35 26 18 17 15 24 17 15 16 15 12 8 11 9 7 7 6 5 5 5 4 2 1 3 7 6 8 7 9 14 14 11 9 10 9 11 11 12 13 13 12 15
29 31 32 31 22 22 24 37 31 23 22 24 23 19 16 18 18 13 11 11 12 9 9 10 9 7 5 5 5 4 5 6 7 7 6 7 9 12 12 12 12 12 13 14 15 15 15 17 19
33 37 31 31 19 22 17 19 24 27 19 20 23 23 17 19 19 14 9 11 10 6 8 11 11 10 11 10 9 8 8 8 9 9 8 8 9 10 12 12 13 13 14 17 19 20 21 22 21
36 34 34 34 35 34 30 26 19 22 22 22 21 22 20 20 21 18 14 11 10 6 6 11 14 16 16 14 14 13 12 11 11 10 10 11 12 12 12 14 15 17 19 20 21 21 21 23 24
36 41 39 35 33 24 17 12 17 28 22 24 20 24 23 21 21 19 16 15 14 12 9 11 13 17 19 20 17 13 13 13 12 13 12 12 12 13 15 16 18 19 19 19 21 22 25 27 29
28 34 36 39 33 26 28 29 14 26 23 27 27 23 23 22 22 22 19 18 18 20 20 18 13 13 14 14 19 17 13 13 14 15 15 15 15 15 19 19 20 21 23 25 25 26 28 31 34

GFSSGP_500_spd_096.txt.gz
Wind_Speed
22 22 20 22 25 23 17 13 29 29 37 26 26 28 33 31 27 30 35 29 32 33 30 28 25 22 18 19 23 27 28 29 31 33 32 34 30 28 24 26 28 26 24 27 31 30 25 24 21
23 21 19 22 23 20 11 15 32 40 32 30 29 33 30 28 27 36 33 23 27 30 30 26 29 23 23 22 21 24 30 29 28 33 34 32 28 29 29 27 28 27 25 26 29 27 24 22 20
25 22 21 19 24 21 6 23 32 32 34 29 29 32 30 28 32 33 27 30 24 26 27 26 26 26 27 27 28 28 29 37 33 32 30 27 29 30 30 28 27 29 29 29 29 27 24 18 17
23 23 21 19 20 19 12 26 35 26 28 36 32 32 29 37 28 25 27 28 27 26 24 26 29 30 30 30 32 32 35 31 40 39 37 30 24 24 25 26 28 31 33 31 27 24 22 16 18
22 24 22 18 18 21 19 26 26 24 28 32 38 32 28 32 29 25 28 29 27 29 28 24 28 28 29 32 32 34 37 38 38 49 36 36 26 24 23 24 29 32 38 34 29 25 20 20 21
23 23 22 17 7 16 23 37 25 22 26 30 37 33 29 33 25 25 30 30 26 28 27 25 27 27 31 35 37 35 40 50 43 47 35 36 30 30 27 25 31 36 40 32 24 21 21 22 21
23 24 21 17 15 19 22 33 27 23 26 30 34 31 30 35 25 29 29 25 27 28 27 29 28 31 33 35 36 40 44 43 53 45 41 32 33 31 34 31 35 34 30 24 22 22 20 20 19
24 25 21 19 16 17 24 29 30 28 27 29 34 31 26 34 22 26 28 29 25 27 26 28 27 32 31 34 28 29 31 37 46 46 35 34 27 30 29 26 34 40 30 23 21 23 22 21 17
27 27 20 21 9 18 28 32 28 27 29 31 32 31 28 26 23 27 31 25 20 23 19 20 22 35 28 20 23 26 28 31 44 45 39 36 36 31 31 30 27 27 28 28 28 24 21 20 17
28 29 21 24 13 27 27 29 31 30 29 31 31 30 30 28 25 24 28 24 19 14 20 19 30 26 17 15 19 21 25 27 34 55 36 41 37 33 36 29 25 29 29 28 27 25 23 21 18
29 27 27 27 28 26 24 29 29 28 27 31 28 28 28 30 24 24 25 25 22 17 18 22 23 23 21 21 16 12 18 33 43 35 50 43 29 32 35 31 28 32 35 30 27 26 25 20 18
35 25 27 30 31 28 26 29 27 29 26 30 27 30 26 25 24 25 23 21 24 20 18 21 21 18 24 23 14 11 14 37 43 54 41 39 40 33 31 27 26 36 40 33 30 30 26 19 19
38 27 29 33 33 30 28 27 29 26 28 28 27 29 26 25 21 21 23 21 25 25 22 18 19 19 20 17 17 10 8 33 43 52 53 44 30 32 31 32 29 35 30 34 33 30 25 23 21
37 37 31 33 32 32 30 29 30 22 29 27 29 27 26 24 20 19 21 23 22 25 25 21 17 17 17 13 15 11 14 29 40 31 41 35 33 32 30 32 32 36 35 34 33 31 26 25 22
42 40 34 33 31 32 31 31 26 23 28 26 26 27 26 26 18 19 19 22 24 26 25 20 17 14 13 13 9 12 11 16 23 37 43 32 30 28 32 32 33 38 39 35 35 33 27 27 26
45 41 39 31 33 32 33 32 24 28 24 25 26 24 23 22 18 18 20 21 24 27 24 20 16 14 11 13 11 8 10 18 19 35 42 34 26 26 30 31 34 38 40 38 36 37 32 30 30
48 44 39 32 29 31 34 34 23 21 23 26 26 24 21 18 16 18 19 20 22 25 22 18 15 14 13 11 11 11 16 19 24 35 44 38 33 30 28 31 33 36 39 38 38 37 38 35 32
46 43 39 37 28 31 35 35 25 24 28 24 28 22 23 20 20 17 18 19 20 22 18 17 12 14 14 11 11 13 17 16 22 33 49 45 42 40 39 33 28 32 37 39 41 41 41 39 38
46 44 42 36 27 19 30 40 30 27 24 22 24 34 21 23 19 19 18 18 18 20 17 15 9 12 14 12 10 12 10 12 16 26 43 46 38 36 34 33 30 33 38 34 37 45 44 40 43
47 44 42 41 40 37 36 40 37 30 27 24 23 24 27 25 17 18 18 17 16 16 16 14 10 11 12 13 9 11 4 7 18 19 29 48 43 34 35 34 28 29 34 36 27 35 40 38 41
46 45 41 43 44 41 42 46 39 29 29 25 23 29 24 27 16 17 16 17 13 14 13 13 11 11 11 11 8 6 15 8 5 15 25 36 41 38 40 37 35 33 34 29 30 35 36 22 23
45 39 38 39 44 46 36 48 41 31 30 23 21 22 22 21 21 16 17 18 11 10 11 11 11 11 10 12 13 7 5 13 6 9 18 29 39 35 37 33 36 29 28 29 29 27 22 18 18
40 31 33 36 37 45 46 50 43 28 25 21 23 27 22 17 20 17 17 18 11 9 8 8 10 10 12 10 10 9 7 6 7 6 6 12 24 25 28 33 36 30 25 22 17 15 14 15 11
33 27 35 33 32 41 37 48 44 32 19 15 20 27 17 19 17 18 17 15 12 8 8 5 7 8 7 9 8 9 6 9 9 8 7 7 8 15 29 31 27 29 21 17 14 11 14 12 14
34 34 32 31 36 38 31 36 41 24 20 11 21 23 16 15 17 20 15 13 13 11 8 6 6 7 8 6 5 5 2 4 8 11 13 12 9 9 11 12 14 14 14 13 13 14 14 15 14
34 33 30 31 27 27 27 34 26 21 27 23 28 22 20 14 17 18 13 13 13 11 8 8 6 7 7 6 4 2 3 2 5 7 6 7 12 13 13 14 8 11 16 15 15 16 16 15 15
29 33 30 32 22 17 19 20 23 19 23 30 24 24 28 18 19 18 13 11 9 9 6 7 8 8 9 8 8 7 4 5 6 7 9 7 8 13 16 17 19 18 18 15 17 16 16 16 18
34 23 27 30 35 33 17 16 20 17 30 25 21 24 24 21 21 18 14 13 9 8 6 3 4 8 11 13 12 11 10 8 7 7 7 7 9 9 10 12 12 13 13 13 16 15 13 17 18
32 40 34 26 29 32 33 28 19 18 20 25 24 16 26 24 19 18 16 14 12 10 11 9 9 9 10 13 14 14 12 9 9 9 10 10 10 10 10 10 10 11 13 16 14 13 15 17 21
29 28 35 38 31 28 25 22 22 30 28 27 23 21 22 20 22 22 20 17 16 14 13 11 11 11 12 13 12 11 15 12 10 10 10 10 10 10 11 12 14 15 16 18 19 20 21 21 24

GFSSGP_500_spd_099.txt.gz
Wind_Speed
21 19 20 18 15 11 14 14 16 18 27 29 28 33 32 33 35 33 30 27 25 28 27 30 28 27 27 24 21 21 24 30 32 33 34 33 34 34 33 29 26 26 30 29 27 25 25 25 26
22 20 21 19 14 13 12 12 19 25 30 32 35 31 33 33 35 31 26 24 23 25 26 26 27 28 27 25 22 22 21 24 29 33 33 31 33 33 30 28 27 28 29 31 30 29 29 26 24
23 22 21 19 16 11 12 12 21 26 29 30 29 29 34 33 34 29 26 26 27 24 24 25 26 27 24 23 25 24 24 25 28 33 35 29 28 29 30 27 28 25 28 27 27 28 31 26 24
23 21 21 18 16 12 10 13 27 22 27 36 30 28 31 34 34 23 22 25 27 29 26 25 27 27 27 28 27 26 26 29 32 34 42 33 25 34 28 29 31 28 28 27 26 29 28 26 22
22 23 21 19 17 21 4 19 31 27 24 27 34 33 34 35 29 24 22 25 28 30 26 22 24 25 26 26 23 24 28 31 33 33 34 33 33 26 29 33 30 28 29 29 31 35 31 25 26
24 27 25 21 20 25 8 21 33 25 20 26 28 33 36 36 30 25 24 24 26 30 25 25 25 26 23 23 25 28 30 35 40 44 35 42 34 32 28 29 28 26 28 32 33 31 31 32 26
26 30 23 21 20 14 12 27 32 23 21 27 28 28 33 38 31 25 24 25 28 28 25 24 24 24 22 24 29 32 32 36 36 34 36 37 28 28 30 28 27 28 25 29 36 41 34 28 23
28 33 27 19 18 17 11 22 34 24 23 28 31 31 30 32 22 27 25 25 26 24 22 19 16 16 23 29 29 29 31 33 35 29 31 43 45 33 36 26 37 24 26 31 37 37 29 20 20
32 33 24 18 21 23 24 25 34 29 24 25 29 30 32 33 28 24 25 24 23 21 23 15 17 25 26 17 17 20 22 25 31 32 34 40 40 35 33 37 33 27 29 32 36 28 23 23 20
32 33 22 23 26 29 28 30 25 32 26 27 31 33 34 36 34 25 26 24 22 17 22 20 17 18 21 18 18 16 22 25 30 30 33 36 44 42 41 38 35 22 30 38 28 23 24 22 20
33 32 27 26 27 30 29 25 26 29 23 25 29 30 31 34 36 28 28 25 23 17 19 20 17 16 17 20 20 22 16 22 29 32 30 43 53 45 35 33 23 16 29 29 23 25 23 23 20
36 33 30 28 30 33 31 27 28 29 24 25 26 27 28 31 35 29 29 24 21 21 23 22 19 16 13 15 16 21 19 22 26 30 36 47 45 42 33 31 25 22 20 28 30 28 28 23 20
37 35 34 31 32 33 32 28 30 29 27 28 25 26 27 28 31 27 28 26 26 20 23 24 23 15 12 12 14 17 19 19 25 27 45 52 51 40 29 32 27 27 29 33 34 31 27 25 22
34 39 37 35 33 31 33 30 33 25 27 28 27 24 26 28 28 23 25 23 23 22 25 24 24 16 10 8 12 15 22 9 27 40 44 56 42 32 29 26 29 28 27 36 39 35 29 27 25
38 40 41 35 31 33 30 38 30 28 29 27 27 23 25 25 27 20 25 23 22 23 24 25 20 17 11 6 9 11 20 12 28 33 44 54 41 25 31 29 30 28 27 33 36 34 32 28 25
39 41 41 33 33 30 30 40 28 30 34 29 29 22 22 20 28 21 24 20 23 23 23 23 18 16 11 5 5 6 10 11 18 27 49 48 45 28 32 29 28 31 31 37 38 34 33 30 26
40 39 38 36 33 31 34 42 34 29 37 30 26 21 22 22 16 18 24 20 24 24 21 22 16 12 8 5 5 4 6 11 13 16 44 44 44 36 31 28 31 32 32 34 44 36 34 31 31
37 39 40 40 33 32 35 35 31 27 31 27 26 24 25 22 13 16 20 20 24 24 18 20 16 13 7 4 5 4 4 9 12 14 33 47 43 35 29 27 26 26 25 30 35 36 33 34 32
39 42 42 43 40 39 41 41 32 28 36 28 25 25 24 27 15 12 16 18 22 23 18 18 15 11 10 5 6 4 5 5 11 20 24 45 46 31 27 25 27 19 22 27 31 34 36 37 38
42 46 46 45 42 38 44 44 38 36 37 26 22 23 23 29 23 12 15 18 20 22 16 16 15 9 8 7 5 2 4 5 13 22 30 42 47 42 40 33 29 29 28 26 29 34 35 30 32
42 45 47 46 43 46 46 44 45 44 37 26 22 21 25 29 23 15 16 19 20 19 15 13 14 10 7 5 4 4 4 7 9 20 23 32 44 40 44 39 33 32 31 24 25 28 31 26 20
42 42 42 43 47 50 37 47 46 49 42 37 29 26 26 26 20 13 18 20 19 18 13 11 11 8 9 1 4 5 3 6 3 10 16 25 35 42 38 33 28 34 34 26 27 26 22 31 26
44 41 39 43 47 48 42 45 44 41 44 31 20 20 21 25 18 12 21 20 17 16 12 9 9 6 6 6 1 4 7 3 4 3 11 25 22 28 30 40 35 33 35 28 22 24 25 23 18
39 41 41 35 44 46 38 36 45 35 38 32 19 20 19 21 12 14 21 18 15 14 11 9 7 7 5 6 5 5 6 9 9 7 1 1 13 29 31 32 32 36 31 34 34 24 21 18 17
43 37 41 38 44 43 31 32 37 24 30 34 24 23 16 20 14 16 16 15 13 11 10 11 8 7 6 6 4 7 6 7 10 9 10 11 5 2 14 19 26 24 27 29 25 20 18 17 18
44 38 41 40 39 30 20 32 19 13 23 20 21 26 26 23 14 15 15 14 14 11 7 9 9 6 6 4 4 3 2 3 4 5 7 12 12 7 7 8 13 17 19 18 15 16 22 23 21
42 43 37 29 28 25 23 22 19 21 20 30 19 24 28 23 19 16 16 15 14 10 6 6 5 2 3 4 3 2 2 2 2 3 4 2 8 16 15 13 12 10 9 14 20 24 24 25 25
33 31 32 32 31 34 25 17 19 26 30 34 26 23 29 25 22 23 18 17 17 12 9 8 7 4 4 4 4 4 5 5 5 5 4 4 7 10 11 13 13 15 16 16 17 19 20 19 21
34 39 37 33 31 33 31 27 19 29 29 33 30 23 22 23 30 22 21 21 19 14 13 11 10 9 8 8 8 5 9 7 6 7 7 7 8 10 12 15 17 17 16 16 16 17 17 18 20
27 35 34 29 29 29 26 30 31 14 15 30 28 32 31 29 28 23 21 22 21 19 16 15 14 12 10 8 8 8 6 10 8 7 9 9 9 10 11 13 14 14 15 17 18 20 21 23 22

GFSSGP_500_spd_105.txt.gz
Wind_Speed
19 20 20 20 18 22 25 24 24 25 19 14 14 13 18 20 20 23 27 30 33 30 29 28 27 24 26 29 29 30 29 30 29 24 27 19 26 30 34 31 28 31 31 30 27 26 24 21 22
19 20 19 20 19 22 26 24 25 25 21 21 17 15 19 18 18 22 26 29 30 30 28 25 25 27 30 31 31 32 30 28 28 24 30 28 28 30 30 31 30 31 29 29 29 29 25 21 19
19 20 19 19 20 23 26 25 25 26 25 27 16 16 17 15 16 22 25 26 27 27 25 24 27 28 30 32 33 33 31 26 26 27 30 29 31 29 26 26 28 27 28 29 28 27 24 23 23
20 21 19 18 21 21 26 28 27 26 25 30 23 18 17 18 18 20 23 26 26 26 23 24 26 30 30 29 32 33 32 27 27 29 32 31 31 30 29 25 28 28 28 28 28 25 24 22 24
20 22 19 17 22 23 26 27 31 28 29 29 27 21 18 19 20 22 23 23 25 25 24 24 26 29 27 27 29 31 31 32 31 39 39 38 27 30 32 20 23 30 27 26 24 22 21 23 24
21 23 19 18 21 22 24 31 29 32 29 30 30 27 22 20 20 22 25 21 24 24 24 22 26 25 25 25 23 26 29 31 34 32 28 30 35 27 40 20 29 31 29 26 21 21 22 22 26
24 26 19 19 20 24 33 33 31 30 31 30 27 27 28 25 20 22 28 22 25 25 26 23 24 23 24 22 20 23 23 32 37 31 31 35 34 26 29 24 32 30 29 24 24 21 20 22 22
28 30 21 19 19 25 34 32 31 32 27 28 27 29 27 26 20 20 27 25 24 27 27 25 23 23 24 25 27 27 28 35 37 37 32 32 29 29 28 30 29 28 26 28 27 24 22 22 26
32 31 21 18 23 23 38 31 29 29 28 26 30 31 28 26 23 22 27 24 23 24 26 26 24 24 24 25 27 25 18 19 20 26 29 33 28 24 33 31 28 39 26 29 27 26 24 26 29
34 30 21 22 29 29 36 31 30 29 28 26 32 32 32 27 24 23 27 26 22 23 22 23 26 28 29 28 26 25 24 26 20 16 22 28 30 28 28 27 37 36 26 28 29 25 26 29 31
34 34 26 26 32 34 32 32 32 33 22 29 32 33 35 31 24 24 28 25 23 22 21 19 23 30 31 33 31 28 26 24 17 18 20 25 31 25 24 29 34 29 22 25 26 22 27 30 29
38 38 33 27 32 36 31 33 33 33 18 27 32 37 36 36 29 24 27 26 26 23 20 19 20 29 33 34 35 26 25 23 21 18 24 27 27 25 22 36 30 32 26 28 28 20 26 29 28
43 38 37 35 35 36 35 32 35 28 23 27 29 36 37 38 31 27 26 27 28 25 18 18 21 27 30 30 32 26 23 24 22 19 24 31 31 36 35 43 47 35 34 29 26 23 25 25 26
43 43 39 41 38 34 31 32 33 17 25 31 33 34 37 36 35 29 25 28 27 25 20 19 23 27 27 26 26 21 22 23 22 28 27 32 34 36 41 38 42 36 34 31 30 23 26 22 27
46 45 44 44 39 31 33 32 28 22 32 34 35 34 37 36 36 27 27 29 26 23 21 20 24 25 24 23 21 18 20 21 21 24 24 31 39 38 39 40 42 34 32 28 29 25 24 25 22
47 47 46 45 40 32 34 26 27 27 35 38 39 36 33 33 33 24 26 29 24 21 23 22 22 24 22 22 18 17 19 20 23 18 22 30 38 41 44 45 47 28 26 30 26 22 31 27 24
47 47 45 44 39 36 38 31 27 34 39 38 38 36 34 34 34 25 26 26 24 21 25 22 20 22 22 19 18 18 18 19 19 13 15 21 34 39 42 54 46 30 27 30 27 24 27 27 27
45 44 46 45 41 40 41 34 33 33 36 37 36 36 35 33 33 23 23 22 21 21 26 21 19 20 21 18 17 17 18 17 13 7 8 21 25 36 37 49 45 35 28 32 31 28 26 30 32
46 47 46 44 45 43 43 38 32 34 37 37 38 37 34 33 39 28 21 17 21 21 22 20 17 17 20 19 18 18 18 17 13 7 16 13 30 42 46 48 38 26 30 31 31 28 26 29 31
49 49 47 46 44 45 42 38 36 35 35 37 38 37 33 34 32 36 27 17 21 24 21 20 16 15 18 18 20 18 18 17 12 15 11 28 31 48 45 39 23 28 29 33 33 26 24 24 28
48 47 47 44 42 44 47 45 37 36 36 37 40 39 32 33 32 27 25 21 21 23 21 19 15 15 16 16 20 17 18 16 14 14 19 23 42 50 49 36 26 25 27 26 23 24 22 25 29
47 45 46 46 50 49 44 47 39 36 35 36 39 40 33 31 33 27 23 21 22 22 19 17 14 14 15 15 19 16 19 18 16 16 26 18 40 46 47 43 31 29 27 28 27 23 23 24 25
39 41 42 45 48 48 42 44 38 35 33 30 37 40 38 35 40 35 28 26 25 23 19 16 14 15 13 13 17 15 18 18 13 15 19 23 21 45 42 46 35 34 37 38 32 27 23 25 25
43 44 45 47 47 47 41 43 36 34 28 29 35 42 39 38 45 38 32 29 29 22 18 14 14 16 13 12 14 14 15 18 13 15 16 27 21 36 37 41 38 35 37 33 32 32 30 28 29
45 45 46 47 49 45 39 40 33 33 25 29 34 40 37 39 43 26 28 27 30 22 17 13 15 16 14 14 14 12 11 15 16 11 10 21 24 33 31 27 28 32 30 26 34 39 35 32 28
48 47 47 48 47 43 40 39 34 26 25 29 30 33 31 37 38 25 30 22 26 20 15 15 16 14 12 12 13 13 9 13 16 14 9 15 26 25 26 29 29 30 33 32 27 33 35 32 28
45 48 40 43 44 44 41 39 34 24 23 28 28 29 33 33 36 32 30 28 27 19 17 18 19 15 13 10 9 11 12 10 11 15 20 18 15 21 26 21 24 19 23 23 22 28 35 37 38
49 39 40 42 44 42 41 39 33 24 24 28 28 25 32 30 34 37 35 33 28 20 19 19 20 18 16 14 12 11 14 14 13 13 13 16 21 21 26 21 18 20 20 21 24 30 35 34 41
45 43 44 43 41 39 38 38 28 24 27 31 34 29 33 33 37 39 39 33 30 24 24 23 22 20 19 17 14 12 12 16 16 14 13 12 14 18 25 20 21 24 18 18 19 17 18 18 22
41 40 42 44 42 40 40 36 31 28 31 33 30 32 36 30 40 42 41 36 32 28 29 27 24 22 23 21 17 14 13 14 17 16 13 12 11 12 15 23 24 22 18 19 19 20 20 22 24

GFSSGP_500_spd_108.txt.gz
Wind_Speed
17 17 17 18 19 21 25 22 21 24 23 20 20 21 24 15 15 19 22 23 22 24 26 27 27 26 24 24 26 27 29 29 28 28 27 24 23 20 26 27 25 27 29 29 28 26 21 18 17
18 18 17 17 18 21 25 23 23 23 22 21 21 23 25 18 15 17 21 22 23 24 24 25 27 25 24 26 29 28 29 31 29 29 29 25 23 19 20 21 21 24 30 30 27 24 22 18 16
20 18 18 16 18 21 25 23 22 23 23 24 23 24 24 26 16 16 19 22 23 23 24 25 25 25 25 27 29 30 30 30 29 29 31 25 26 27 24 24 18 17 26 28 28 26 24 21 17
20 20 19 17 19 23 26 25 22 25 27 27 27 25 22 26 22 14 19 18 23 23 24 24 25 23 23 25 24 27 29 30 29 28 34 24 27 30 25 22 20 17 23 29 28 27 26 22 21
22 22 22 15 20 24 27 29 24 26 25 26 27 23 21 25 25 17 19 17 21 23 23 21 22 22 25 25 25 25 27 28 28 29 30 30 30 25 25 20 23 19 20 28 29 25 24 24 22
25 24 23 15 21 27 28 28 26 24 23 25 26 24 20 21 21 20 18 18 18 23 23 21 21 20 22 26 27 26 26 27 28 28 28 31 22 31 37 19 28 30 17 21 26 23 25 25 23
27 27 26 20 20 26 33 28 27 23 21 23 24 23 21 21 21 22 20 22 19 23 23 19 19 17 20 23 26 26 29 33 33 27 29 27 28 31 23 32 23 19 17 14 23 22 24 21 21
31 32 30 22 20 24 34 31 30 26 24 19 21 24 24 23 22 23 21 22 21 23 24 21 19 15 16 22 27 28 27 29 34 27 25 27 30 27 30 23 20 23 23 17 21 22 24 23 24
36 37 31 23 24 26 34 37 35 26 23 21 22 23 24 25 25 23 24 23 21 23 24 24 21 19 15 19 27 29 28 29 27 32 25 22 29 29 23 24 29 33 24 23 24 26 24 23 24
40 37 32 27 29 32 37 37 35 29 25 21 22 24 25 27 26 25 25 26 23 24 23 23 23 22 21 19 25 32 30 28 26 22 24 18 22 31 22 22 31 30 28 27 24 27 27 25 21
41 38 36 32 33 37 39 38 37 32 27 23 25 25 26 26 26 26 24 27 26 26 24 23 23 22 23 24 27 32 32 29 25 24 24 18 21 29 26 27 30 27 26 31 16 27 29 26 25
42 40 40 34 35 40 40 41 37 34 25 26 28 28 29 29 28 26 23 24 28 27 24 25 22 21 23 25 29 32 33 29 24 23 23 21 21 23 26 30 31 26 33 26 23 28 29 27 25
39 37 37 37 39 42 42 39 36 38 25 28 30 32 33 32 32 27 24 25 26 27 24 26 24 21 23 26 30 30 29 29 22 22 24 20 25 25 27 31 31 25 31 26 25 28 27 25 25
41 40 39 38 42 43 41 36 44 30 32 34 34 35 35 34 31 27 22 27 26 26 25 23 25 22 24 26 29 27 24 22 20 21 22 28 26 28 28 26 30 32 32 27 31 29 28 25 24
45 44 44 44 43 43 40 40 37 33 36 38 39 37 36 33 30 27 22 25 29 24 26 22 23 23 24 26 26 24 22 19 20 22 25 25 31 35 37 35 32 36 34 31 31 31 30 26 23
49 48 46 44 43 43 41 38 35 35 40 41 43 40 37 34 31 28 23 25 29 26 26 23 21 24 25 24 23 22 20 20 21 22 26 32 28 34 37 36 32 40 43 36 35 32 27 24 24
51 50 46 42 45 46 44 38 39 38 43 45 43 40 37 34 31 29 29 27 29 28 28 25 20 23 25 22 20 20 20 20 21 22 23 33 25 35 38 39 38 40 40 40 38 31 27 27 28
50 47 46 45 46 47 47 43 43 43 44 46 44 42 40 37 33 30 29 26 28 30 26 25 20 22 24 20 19 20 21 20 22 21 23 28 20 35 40 42 39 41 43 42 35 33 30 34 35
49 49 49 49 50 52 49 45 45 46 46 48 45 42 39 37 33 28 25 26 29 32 23 27 22 23 23 18 19 21 21 20 21 21 22 23 19 32 40 44 46 44 42 39 36 34 31 33 32
53 53 51 50 50 51 48 45 48 49 45 43 44 44 42 39 36 28 22 29 31 38 26 33 24 24 21 18 18 21 21 21 20 20 17 24 17 20 33 43 48 49 38 39 39 37 33 33 34
50 51 52 50 47 45 50 46 47 46 44 43 41 40 40 38 38 27 24 28 26 35 30 32 25 23 19 18 17 20 22 20 19 19 19 22 19 18 30 36 45 51 40 32 36 35 33 33 31
50 47 48 47 46 47 46 50 48 44 39 40 39 39 40 40 37 30 25 27 25 31 27 31 25 22 18 17 16 19 21 19 19 17 21 22 24 22 28 31 46 51 30 34 34 32 31 34 31
43 43 42 44 46 48 48 50 51 44 42 39 41 41 41 39 38 34 29 27 24 27 29 29 25 23 19 15 16 18 19 18 19 16 18 22 21 25 34 39 43 35 32 35 31 33 35 31 31
43 42 43 45 45 50 46 46 45 43 41 36 39 39 40 38 38 32 35 28 27 34 32 28 27 23 19 14 16 17 17 18 18 18 17 18 18 25 38 39 48 40 34 31 31 35 34 33 32
49 46 44 46 48 46 48 45 41 39 39 37 34 36 37 36 39 33 31 31 30 34 33 30 29 22 17 15 16 18 16 17 15 17 16 15 19 16 29 39 44 38 25 27 30 35 36 32 30
50 48 44 44 46 45 46 43 39 41 38 36 36 34 34 36 37 31 33 32 36 33 32 32 28 22 16 14 16 15 15 15 13 15 15 11 12 15 20 30 29 26 32 30 28 39 34 36 34
52 53 43 41 42 45 46 44 41 40 35 35 37 35 29 33 32 28 34 32 31 35 32 32 29 22 16 14 15 14 12 14 12 11 15 12 8 10 16 22 22 24 24 33 32 32 32 28 29
52 48 46 43 46 48 47 44 43 40 31 33 36 33 24 27 29 31 30 31 36 36 35 32 30 24 20 18 17 13 14 12 13 11 11 11 15 14 11 14 18 15 18 28 24 24 17 23 25
51 52 51 47 45 45 44 43 41 39 33 35 36 35 25 26 27 28 31 36 35 36 37 32 30 26 24 21 19 16 14 13 13 14 11 11 11 12 15 17 13 18 19 14 23 20 17 22 25
46 48 45 47 44 45 44 43 44 41 31 30 34 32 28 29 27 26 33 35 40 40 41 34 33 28 25 23 22 19 17 14 13 14 12 9 10 10 12 18 20 16 14 13 13 14 9 13 13

GFSSGP_500_spd_111.txt.gz
Wind_Speed
21 20 19 18 16 17 20 18 17 16 17 17 19 20 19 20 24 25 25 19 19 18 18 20 22 23 22 22 21 22 23 25 26 27 26 26 23 18 22 22 26 25 25 24 23 21 21 20 18
22 21 20 19 16 18 20 19 17 16 18 18 20 22 22 20 25 25 25 25 20 19 17 19 22 22 21 21 23 25 27 26 25 25 25 24 23 19 19 14 17 23 22 24 23 22 22 20 19
23 22 21 19 15 19 21 20 18 17 18 19 21 21 22 23 23 23 25 26 22 19 17 19 20 20 20 20 21 25 23 23 25 26 25 25 30 21 20 23 18 16 17 22 20 21 20 21 21
23 23 22 20 17 21 22 23 20 19 18 20 20 16 17 19 21 23 25 27 23 19 16 19 20 20 19 18 19 22 22 20 23 21 21 22 24 18 20 19 18 19 18 18 20 20 23 24 22
25 24 23 18 18 21 22 24 21 21 21 21 18 13 12 14 17 20 19 24 24 21 15 17 18 20 19 19 18 20 20 21 21 22 19 20 27 39 21 16 19 18 18 16 21 24 25 25 23
27 24 24 19 20 24 24 25 21 21 20 19 17 14 13 14 17 19 18 23 24 24 21 17 17 19 20 20 20 21 20 22 20 22 28 22 26 31 24 20 23 19 19 18 21 25 26 25 25
28 28 26 24 20 24 25 27 27 24 21 20 17 14 14 14 15 17 17 21 24 24 22 20 19 20 20 21 21 23 21 21 21 22 23 20 22 23 23 19 25 25 21 29 24 25 28 24 26
32 32 28 28 22 23 28 30 29 30 27 24 19 17 20 16 14 15 17 20 22 22 21 19 20 22 22 20 21 23 21 21 22 20 20 16 14 21 25 19 25 25 24 17 21 24 27 27 26
36 35 30 28 24 23 31 36 32 34 30 26 22 21 23 19 16 14 18 21 20 19 19 18 20 21 24 23 20 23 24 19 21 19 16 15 14 19 20 20 22 24 20 19 14 22 26 27 26
40 36 34 29 29 30 36 40 36 35 33 29 26 26 25 23 19 16 20 20 23 20 20 19 20 21 23 24 24 22 24 21 20 20 16 20 20 18 19 20 20 22 23 18 20 25 24 23 26
41 38 39 35 35 37 39 41 43 36 34 32 29 30 29 25 22 20 21 20 24 19 19 20 21 21 24 26 27 26 25 23 20 20 19 19 19 18 22 22 17 20 24 25 21 26 25 23 25
43 42 43 40 39 39 41 44 45 39 36 33 33 33 31 29 26 25 20 19 23 25 19 18 20 21 23 25 28 28 27 26 22 20 21 19 18 19 21 27 24 23 27 26 31 26 30 27 27
44 42 42 43 41 42 43 43 42 39 40 37 36 35 33 33 33 29 21 18 22 27 22 18 19 21 23 24 27 28 29 28 24 21 19 20 18 18 22 24 27 25 28 33 30 27 27 27 27
46 44 42 41 41 41 40 36 41 39 37 38 39 35 38 41 37 32 17 20 21 28 23 20 19 22 25 23 25 27 29 27 23 18 17 20 18 20 19 24 28 29 30 35 33 26 31 29 28
47 46 47 45 44 42 39 36 39 40 38 38 41 41 41 44 41 34 21 24 23 29 25 21 21 24 26 24 24 27 28 25 20 19 17 19 21 21 23 27 26 26 31 34 31 33 32 30 29
48 49 48 48 46 43 42 38 40 39 39 42 44 44 44 45 40 36 26 23 26 31 26 22 22 25 27 26 24 26 27 24 20 18 19 18 20 24 31 28 29 23 33 38 37 37 34 32 30
51 50 50 49 46 46 45 41 40 41 44 46 47 47 47 46 44 40 31 24 27 30 26 24 24 25 28 27 25 25 26 23 19 20 21 18 18 24 30 28 31 33 36 40 38 36 32 32 32
50 49 49 49 50 48 46 45 46 44 45 48 49 48 47 47 44 41 34 29 25 28 25 27 24 25 28 27 26 26 25 22 20 22 23 20 20 25 21 25 29 33 36 41 39 39 34 36 32
48 49 49 50 53 53 50 48 49 46 46 48 49 49 46 45 43 42 39 33 30 26 27 27 26 27 30 30 27 27 24 20 20 23 24 20 21 23 24 29 32 33 40 37 37 40 40 36 33
49 49 47 51 51 53 49 48 50 49 47 47 49 48 46 43 42 44 42 35 35 27 26 29 30 31 33 35 29 28 24 19 20 23 22 21 19 24 19 37 42 43 37 40 42 44 44 38 36
49 49 48 49 49 48 51 47 48 48 51 47 48 47 45 45 43 44 41 37 35 29 26 28 30 31 35 34 30 28 24 20 19 21 21 21 21 24 18 16 37 43 42 41 44 45 45 39 36
51 48 48 47 47 46 44 51 51 48 47 45 44 43 41 40 42 40 40 37 35 33 29 28 29 32 35 34 30 28 23 19 18 18 20 21 21 23 20 19 28 45 46 45 48 45 45 40 36
49 48 46 46 46 46 45 48 51 48 45 42 40 39 38 37 37 39 39 37 37 34 30 32 28 31 31 35 30 29 23 18 18 17 18 20 18 18 19 20 29 39 46 47 47 48 45 41 41
49 52 51 48 47 50 45 45 48 49 46 40 37 38 39 43 44 42 40 38 36 33 32 31 28 30 32 31 30 29 25 19 18 16 17 20 17 16 15 20 28 36 47 50 50 45 45 41 38
54 54 51 48 50 50 47 46 44 44 42 38 36 37 42 45 43 40 41 37 36 37 37 36 32 32 34 29 30 30 25 21 18 15 15 16 14 14 13 21 24 34 51 49 39 41 41 40 39
56 53 53 50 50 46 42 43 41 40 38 36 31 33 37 39 41 40 40 37 36 35 40 37 34 36 36 31 31 29 23 19 18 13 12 12 11 12 19 20 30 34 52 47 41 38 40 38 40
56 56 50 45 42 44 45 42 40 38 36 36 32 35 36 37 40 40 39 36 31 35 37 35 35 37 36 32 30 28 21 15 18 14 11 9 10 10 9 12 33 34 48 31 22 27 27 37 39
51 48 46 44 44 46 47 44 40 36 35 35 30 34 38 35 34 38 37 31 30 35 35 37 35 38 35 31 32 27 21 16 16 17 13 8 7 10 7 7 22 30 18 22 26 29 24 20 23
46 50 51 46 43 43 43 44 39 36 36 34 31 33 37 35 30 33 33 30 32 33 35 37 35 38 31 33 32 27 23 18 17 16 16 11 7 7 6 6 7 22 20 22 25 29 35 29 23
33 37 34 45 45 44 42 41 38 36 34 35 32 32 35 37 33 31 33 32 38 35 36 38 40 39 32 35 32 28 25 22 18 14 16 15 10 10 11 13 9 13 17 23 17 16 22 28 22

GFSSGP_500_spd_117.txt.gz
Wind_Speed
28 27 27 27 27 27 23 18 23 23 21 20 15 15 14 15 17 19 21 18 17 15 14 13 15 15 15 15 15 17 19 18 18 20 21 18 22 26 27 29 26 24 23 22 23 24 26 24 22
31 29 28 29 28 25 17 18 28 23 23 18 16 15 16 19 17 19 20 19 16 15 16 15 15 15 16 16 17 17 19 18 17 19 20 21 22 25 26 30 30 26 20 23 23 24 25 24 23
32 32 32 31 29 25 15 20 30 28 18 20 16 16 16 20 18 23 23 17 17 15 15 16 16 16 17 17 18 17 18 19 18 20 19 19 21 26 21 20 18 27 12 15 19 22 23 26 24
34 35 34 32 28 24 26 24 33 29 24 21 18 18 16 22 20 21 21 23 20 15 16 17 17 18 18 20 20 19 19 18 18 21 18 18 19 12 24 15 20 19 15 10 11 15 20 23 26
34 36 36 34 28 27 28 32 39 28 27 21 21 19 18 20 20 20 21 23 22 18 15 16 16 16 18 19 21 21 20 19 18 19 19 18 20 14 20 32 26 16 19 14 13 16 17 23 27
36 37 38 36 28 27 32 34 37 31 28 24 24 21 19 25 19 19 22 22 23 21 17 15 14 14 15 17 20 20 20 20 20 22 18 20 14 15 11 8 16 17 11 10 15 18 21 25 27
37 39 40 37 33 25 29 38 39 31 30 27 26 24 22 27 17 19 23 24 24 23 18 15 15 14 16 16 19 19 19 19 21 23 21 18 14 16 20 23 23 21 22 20 20 17 15 21 27
42 41 43 41 38 34 31 42 38 37 32 37 27 26 28 26 16 20 23 25 26 25 22 18 16 16 15 16 18 18 18 19 20 22 22 18 15 17 13 14 20 18 20 22 21 19 15 17 24
44 46 45 43 42 32 34 42 36 41 39 38 33 33 36 23 22 21 23 25 27 28 23 22 19 16 15 15 18 18 19 19 20 21 20 20 17 16 17 17 19 20 21 23 21 18 21 24 25
47 48 48 45 43 37 40 42 39 46 43 43 38 35 34 32 27 24 25 25 28 30 25 24 24 18 16 17 18 18 19 19 20 21 20 20 19 17 19 19 18 18 22 22 20 21 24 20 29
48 47 47 48 48 43 42 44 43 48 46 44 45 39 38 36 28 26 25 28 31 32 25 28 28 23 17 17 18 19 18 20 21 22 19 20 19 17 19 18 16 17 25 23 20 20 17 19 25
54 49 49 49 52 51 45 46 49 51 51 46 48 45 44 36 32 29 29 30 34 33 28 30 32 27 21 18 19 21 18 19 23 25 20 18 18 20 20 18 14 14 20 21 22 21 18 22 26
54 54 53 53 53 54 50 51 52 51 52 49 50 49 45 41 37 35 33 33 35 36 31 30 34 28 25 20 21 22 20 20 24 27 24 18 19 18 18 17 14 15 20 22 21 24 20 24 25
56 55 57 56 56 54 53 53 53 51 51 52 51 50 47 44 42 42 38 34 35 37 33 31 32 34 25 24 23 23 21 21 24 27 27 20 21 18 16 16 16 15 21 25 27 22 25 25 25
57 57 57 56 56 55 54 54 52 52 50 51 50 51 48 46 46 46 43 35 36 38 35 30 31 37 27 26 25 25 21 22 24 27 28 21 20 19 18 16 18 15 19 26 28 21 29 26 29
55 58 58 54 57 57 57 52 50 48 49 47 50 49 51 47 46 47 47 37 37 40 36 31 32 36 30 29 26 26 24 22 22 26 28 24 21 22 21 19 20 20 15 22 33 29 29 31 34
54 59 56 56 52 55 60 54 46 46 48 49 44 43 47 49 47 47 46 41 39 39 33 32 33 34 33 32 27 28 24 22 22 23 28 26 23 23 24 21 21 26 27 24 31 35 35 34 33
42 49 51 50 50 51 60 56 51 48 52 50 46 44 46 47 48 48 44 43 42 40 35 34 33 35 34 34 29 29 26 24 24 23 26 27 25 25 24 26 24 26 28 28 30 36 38 36 39
49 50 49 51 37 41 55 60 57 52 49 52 47 49 50 48 49 48 46 47 44 42 36 35 34 34 34 34 31 30 32 28 25 24 26 28 26 27 26 28 27 25 31 29 31 31 31 35 37
51 50 52 46 47 48 52 60 57 54 53 53 50 51 48 50 50 47 48 48 44 42 38 36 35 35 33 33 32 32 35 31 28 25 25 28 28 29 27 28 29 26 27 33 35 35 37 32 35
51 53 45 52 47 39 53 60 57 51 53 52 50 51 52 50 50 49 48 46 43 43 40 38 35 34 32 33 33 35 36 33 30 25 25 28 29 32 28 28 30 27 28 29 34 38 38 31 36
56 49 51 53 54 53 45 53 42 48 49 53 55 54 51 51 51 48 46 44 45 42 41 39 37 36 33 35 34 38 36 36 32 27 27 29 29 31 29 28 29 28 27 30 31 39 40 36 36
54 51 50 48 45 56 52 50 40 38 43 50 54 51 51 53 51 49 46 46 44 43 41 39 39 36 33 36 36 38 37 40 35 32 29 29 30 31 31 28 29 28 27 33 30 40 42 39 39
55 56 51 52 44 43 48 49 45 27 32 40 50 43 46 47 47 47 46 44 44 45 41 42 39 37 34 36 37 38 40 43 39 34 31 30 31 32 31 30 31 30 31 33 30 39 46 44 42
58 58 47 38 40 51 41 41 50 30 24 26 37 42 38 42 44 45 43 43 43 43 41 38 38 36 36 36 39 38 41 43 41 36 33 30 31 32 32 31 31 32 34 34 38 35 48 47 39
46 42 43 44 40 53 39 33 37 30 35 43 42 34 33 37 39 42 45 45 43 43 40 37 35 35 38 39 40 40 41 43 41 39 34 31 31 31 30 31 30 33 37 35 33 41 47 48 40
34 45 39 39 32 29 23 35 37 30 34 47 41 36 32 31 35 42 41 44 44 43 42 40 38 35 36 37 38 41 42 44 41 40 35 31 29 30 27 28 30 32 34 32 33 36 48 51 46
29 35 37 44 40 30 30 27 28 25 31 35 33 32 33 34 36 37 41 43 45 44 41 41 39 38 37 36 38 43 44 45 42 40 32 30 28 27 25 24 28 28 30 39 33 38 51 51 46
16 33 37 32 39 35 29 27 24 22 29 30 28 36 32 32 37 40 40 40 42 43 40 39 38 37 36 35 39 45 47 46 42 37 30 28 28 24 21 23 24 26 34 30 29 36 37 42 45
16 17 31 36 33 37 31 24 20 29 37 30 34 31 26 27 34 38 39 40 38 38 37 36 36 36 34 35 40 47 48 43 41 35 28 26 26 22 17 21 20 26 20 27 27 31 36 46 43

GFSSGP_500_spd_120.txt.gz
Wind_Speed
34 33 33 32 32 30 26 17 12 15 30 30 28 20 22 25 29 25 21 22 17 16 16 16 13 13 12 11 14 14 15 17 18 18 19 21 21 22 24 27 29 30 26 21 20 23 26 27 28
35 35 35 34 34 30 22 5 24 24 38 28 23 26 20 22 27 24 21 21 18 16 17 16 15 14 13 13 13 16 17 18 18 18 20 23 22 23 27 31 33 31 27 24 22 23 25 27 28
34 34 34 35 37 31 20 10 5 33 44 27 25 25 24 25 30 23 15 20 17 15 14 16 16 16 15 15 16 16 18 20 20 21 21 22 20 22 26 28 32 22 21 27 21 21 24 26 26
35 34 34 37 36 30 24 17 18 31 44 30 24 26 26 31 29 23 12 19 15 14 13 13 15 17 18 19 19 19 20 21 21 22 23 23 20 17 18 15 20 10 27 21 21 21 25 26 27
35 35 35 35 37 32 27 28 30 27 39 27 25 27 28 32 30 24 18 19 16 13 14 13 13 17 16 16 17 17 18 20 21 21 22 25 22 19 17 18 19 24 25 15 14 21 23 25 28
37 37 37 36 34 31 28 28 33 42 45 36 30 26 32 34 30 24 23 20 17 15 16 15 16 16 14 14 15 16 17 18 20 20 20 24 20 20 18 18 11 25 20 13 13 9 19 27 30
40 38 38 37 36 34 23 16 40 45 40 36 33 30 27 36 31 16 25 22 19 17 18 16 17 19 16 13 15 16 17 18 19 21 20 20 23 20 19 20 21 19 20 16 14 12 16 21 26
42 43 42 39 38 39 31 20 30 45 45 36 33 36 31 40 33 20 24 27 23 20 20 19 17 19 19 14 16 17 17 19 19 19 21 20 22 22 19 21 17 15 20 19 20 14 14 15 21
47 47 47 43 40 38 36 37 41 48 36 33 41 38 37 43 31 22 27 29 28 24 22 22 19 21 20 17 16 16 17 19 20 19 18 20 21 22 20 22 18 17 17 15 16 17 19 17 14
50 53 48 46 40 40 31 31 40 53 46 41 45 43 39 40 33 33 30 30 32 29 27 25 22 23 22 20 18 19 17 18 19 20 18 19 21 22 20 19 20 21 18 19 17 20 21 19 20
52 55 52 51 48 45 45 42 48 54 46 49 43 48 40 41 40 35 31 32 32 34 32 30 26 26 24 21 20 21 19 18 20 21 18 18 19 18 18 20 20 20 19 20 23 22 20 23 22
53 56 57 55 53 52 50 52 52 52 48 50 51 46 51 45 43 35 30 32 34 34 33 35 30 27 27 23 22 22 20 20 20 24 19 18 20 18 17 19 20 20 20 19 24 23 22 22 18
56 56 59 60 58 56 56 55 52 52 53 53 55 50 50 49 45 34 35 34 34 38 32 36 35 30 30 26 24 23 22 21 20 23 21 18 20 20 17 18 17 17 18 18 22 22 21 18 19
55 58 59 62 62 60 61 60 55 48 54 56 56 52 51 50 49 39 40 38 37 33 40 32 35 33 31 33 25 25 23 22 22 23 21 19 20 20 18 16 17 16 16 18 22 21 21 21 21
55 61 61 61 60 61 62 64 60 50 54 57 58 56 53 52 51 47 43 42 38 36 35 38 34 34 32 33 28 28 24 23 23 24 22 18 19 20 17 16 15 16 18 19 23 25 21 24 25
45 57 64 63 61 61 56 64 58 54 55 55 56 56 56 54 53 50 46 44 41 38 38 36 37 32 33 31 29 30 26 25 24 24 24 20 19 20 18 18 16 17 19 17 22 26 31 31 26
39 44 43 59 57 52 39 62 53 55 53 55 55 55 55 53 51 51 49 46 42 37 37 37 34 32 33 33 27 29 28 28 27 24 24 23 21 21 21 19 20 17 19 23 22 22 29 25 30
46 47 46 45 49 50 32 53 36 54 45 51 48 51 52 48 49 50 47 44 43 37 36 36 34 30 32 34 26 28 29 29 29 26 25 27 23 21 23 21 21 21 22 23 28 28 24 30 30
52 51 49 46 38 40 45 34 41 34 41 44 48 50 48 47 47 48 45 43 39 38 35 33 35 32 31 30 28 28 29 31 28 28 27 28 25 22 22 24 23 24 24 26 26 30 27 32 36
54 55 53 49 43 43 46 45 38 32 42 49 46 50 51 49 51 50 50 45 40 39 39 36 34 36 31 29 28 29 30 32 29 27 29 27 25 23 23 25 24 26 26 28 25 27 29 29 38
61 54 53 52 44 37 38 51 50 48 51 53 50 49 51 49 50 51 48 46 45 42 39 33 35 36 33 30 28 29 31 30 29 28 28 26 28 23 24 26 26 27 26 28 30 27 28 33 36
69 55 52 53 46 41 36 50 44 43 48 51 45 43 46 48 49 51 47 47 47 46 39 38 38 36 35 32 29 30 31 30 30 29 28 27 27 26 26 26 27 27 28 28 30 28 27 34 39
65 56 53 54 53 32 40 47 37 33 32 22 32 39 51 50 48 46 51 48 46 44 42 39 38 38 36 33 33 32 32 31 30 28 32 27 28 27 29 27 28 28 29 30 30 32 30 29 41
53 52 52 56 51 39 48 44 39 33 33 13 22 31 28 37 50 53 47 45 46 45 44 40 37 40 36 35 36 34 32 32 31 30 32 30 30 30 29 30 28 28 29 32 34 34 32 31 37
36 36 53 49 46 49 51 48 43 25 22 17 23 34 38 43 41 38 43 48 46 47 47 40 40 43 39 37 38 36 34 35 33 32 34 30 31 31 30 33 28 28 30 32 36 37 33 38 37
29 33 40 38 34 46 48 34 43 21 22 27 27 28 28 25 28 36 39 41 43 45 42 42 42 43 39 35 39 38 36 35 35 33 34 32 32 33 34 34 27 28 31 33 35 34 36 40 39
27 32 33 33 30 33 24 20 34 20 16 32 34 41 38 28 31 29 34 38 40 41 42 42 41 40 36 36 37 37 36 35 35 34 35 34 33 35 34 34 26 28 31 33 33 32 33 38 39
18 12 27 32 35 35 31 25 14 19 29 29 39 43 47 36 34 32 31 34 39 39 41 42 43 39 37 38 38 38 35 35 35 36 36 37 33 37 34 30 27 30 32 32 32 30 34 31 39
18 9 16 24 37 30 24 24 13 13 24 29 31 32 28 33 33 35 33 33 34 37 40 41 41 40 38 39 41 39 37 36 36 38 39 36 34 35 34 26 27 31 33 30 27 33 36 39 41
10 15 16 23 28 35 26 29 23 24 24 34 32 28 29 28 32 34 34 35 37 37 37 39 41 38 37 38 39 39 39 36 39 40 40 35 35 32 32 24 28 30 29 28 29 32 24 34 38

GFSSGP_500_spd_123.txt.gz
Wind_Speed
33 34 35 36 37 36 30 16 9 11 14 21 32 35 35 30 31 33 28 22 23 16 14 12 11 13 14 14 14 15 16 18 19 20 21 22 21 19 19 22 27 36 31 27 24 22 24 26 27
38 40 40 41 40 39 29 12 18 13 16 26 33 37 34 31 32 35 30 24 23 18 15 13 13 14 13 14 15 16 17 19 20 21 23 24 22 22 22 25 32 30 31 33 27 23 25 27 26
35 36 36 37 37 34 27 14 5 8 15 29 36 39 38 36 37 32 25 23 24 17 15 14 13 14 14 14 15 18 20 22 22 22 23 25 23 22 23 22 14 19 25 26 33 26 25 23 29
35 35 36 36 35 31 26 19 19 10 19 30 33 41 36 34 38 30 21 24 24 20 15 13 11 12 13 14 15 15 16 18 19 20 21 25 23 20 22 20 18 18 21 25 22 28 25 23 30
34 35 35 35 34 30 25 19 27 15 24 37 41 40 33 33 36 34 23 23 22 21 15 12 10 11 11 12 12 12 13 15 16 18 20 23 24 18 21 20 19 21 20 15 21 23 24 25 26
39 37 37 35 33 34 29 24 27 24 30 36 44 31 29 34 37 35 25 23 24 22 16 13 11 12 11 13 12 11 11 13 17 18 20 21 23 20 19 20 16 13 16 24 11 8 12 26 26
40 42 40 38 37 34 30 26 31 33 33 40 42 44 35 43 40 33 26 28 25 24 19 16 13 12 13 13 13 12 12 13 16 19 21 21 22 20 18 17 16 17 15 17 18 10 8 16 23
43 43 44 44 40 35 30 27 31 30 38 40 46 46 40 42 42 36 23 25 26 24 22 19 18 14 14 14 15 13 14 15 16 18 20 21 23 20 19 17 17 15 14 16 19 17 13 13 17
46 48 46 46 44 39 34 32 35 37 45 48 48 41 46 45 42 41 29 27 30 26 25 22 22 19 17 15 16 17 17 16 17 18 19 21 21 23 19 17 14 13 13 15 21 14 17 14 14
45 45 47 45 45 45 40 38 42 43 47 49 46 44 41 47 43 44 37 31 31 27 28 27 25 23 19 19 17 19 19 18 18 19 19 20 22 21 21 17 14 13 13 14 17 16 19 18 16
44 46 46 47 48 49 48 47 43 51 53 52 49 43 50 54 45 40 40 38 33 29 29 30 30 27 23 21 20 20 22 21 20 20 19 19 21 20 21 18 13 14 15 14 18 19 19 20 18
44 46 48 49 51 53 52 50 50 52 51 57 52 51 50 51 51 46 46 37 34 30 29 29 31 30 27 23 23 22 23 24 23 22 20 20 20 19 20 20 16 13 15 15 17 17 22 20 16
41 44 47 50 55 57 58 56 57 55 53 60 59 56 52 53 53 50 44 35 38 36 29 28 32 29 30 26 25 24 24 25 24 23 22 20 19 19 18 18 16 14 14 15 15 16 23 22 19
43 45 48 50 54 60 62 61 59 58 59 60 59 57 55 54 53 52 47 37 40 40 34 31 28 31 28 27 29 27 24 24 25 24 23 21 19 20 16 16 16 14 14 16 14 16 21 21 19
47 50 50 47 48 55 59 67 66 57 62 62 59 57 54 51 52 52 50 41 37 41 42 35 31 29 30 26 29 30 24 26 24 23 23 21 20 21 16 14 15 14 13 16 16 16 24 22 22
50 50 48 44 40 42 49 67 63 62 62 63 62 59 58 53 51 50 49 47 42 42 42 42 34 29 30 27 28 31 25 27 24 23 23 23 20 22 19 14 13 15 15 15 17 16 20 21 20
46 48 48 52 41 43 43 49 62 63 56 59 58 60 60 54 53 52 53 50 43 43 42 43 40 30 30 28 27 30 27 27 22 24 22 23 23 23 22 18 13 14 16 16 17 19 18 21 23
49 52 52 51 41 47 46 47 46 44 48 42 48 55 56 58 60 56 56 50 43 43 43 43 42 33 30 29 27 27 28 27 23 23 22 22 23 25 24 21 16 15 15 19 19 21 24 23 21
54 57 59 56 52 52 53 48 45 42 39 43 38 44 50 56 55 57 52 50 49 44 44 42 39 32 29 29 27 27 30 29 26 22 23 23 23 23 26 21 19 15 16 18 21 23 23 24 25
58 63 61 58 59 55 55 53 50 46 38 48 47 45 45 49 52 49 42 44 44 42 40 36 34 30 27 30 28 28 30 29 29 25 21 23 24 22 25 23 21 18 17 17 20 24 26 26 26
62 65 66 67 62 65 57 57 52 45 37 46 52 49 50 51 51 52 46 46 47 43 37 37 34 30 31 33 32 28 30 29 30 23 24 24 23 21 23 24 22 21 20 19 20 23 25 27 28
74 72 71 69 67 68 55 56 54 46 35 34 39 44 49 53 53 51 49 47 49 44 39 40 38 32 34 33 31 29 31 31 30 27 29 25 24 22 21 23 24 23 24 22 21 23 27 29 30
65 56 53 54 54 62 63 51 53 44 33 26 31 38 38 39 39 40 42 43 44 42 42 39 36 34 37 35 32 32 34 34 32 31 31 26 25 24 21 22 24 23 26 27 24 24 26 29 29
42 41 38 35 39 52 58 50 51 45 30 21 14 20 24 34 40 35 40 42 45 49 44 41 36 37 36 36 32 33 36 35 33 33 32 28 27 27 22 23 23 24 27 29 27 26 26 30 32
35 41 40 34 30 50 47 48 50 39 31 20 21 18 22 22 37 41 43 48 53 48 46 42 39 31 36 39 37 35 37 36 35 36 34 30 29 29 23 24 24 25 28 29 28 27 28 30 32
30 32 33 39 39 31 42 42 46 43 23 22 27 26 14 20 28 31 37 42 45 45 42 39 38 37 42 41 37 37 39 39 37 37 35 30 30 32 26 24 23 27 29 29 29 28 29 30 32
27 26 28 31 24 26 26 29 36 26 17 31 30 31 27 34 28 26 23 29 31 33 38 43 42 41 42 40 38 39 40 41 40 38 34 31 31 33 28 26 25 28 30 29 29 29 30 30 29
28 24 25 19 24 25 19 25 21 21 27 34 25 32 29 23 20 18 23 29 35 36 37 39 40 40 40 37 36 38 40 41 40 37 33 33 32 33 31 27 26 29 30 29 30 29 32 31 32
17 8 9 17 20 16 18 22 26 13 26 26 32 29 26 27 35 37 33 31 27 32 36 37 37 39 39 38 37 36 37 39 39 36 34 34 34 35 32 28 27 29 30 28 30 31 32 34 33
21 20 9 17 14 11 22 30 20 5 29 27 24 27 27 30 27 18 28 24 29 31 32 33 35 36 36 36 37 37 37 38 39 36 35 37 37 37 31 29 28 29 30 27 29 32 32 33 38

GFSSGP_500_spd_126.txt.gz
Wind_Speed
32 32 32 34 36 35 32 25 19 19 25 23 18 16 23 31 37 40 34 32 30 28 26 20 17 14 14 13 14 14 15 15 18 19 21 23 24 23 22 25 23 20 22 25 39 31 25 26 27
34 34 36 38 39 39 37 27 16 24 26 24 18 23 27 32 36 38 36 35 29 26 27 21 18 16 16 14 15 13 13 15 18 21 24 25 24 22 21 25 21 20 25 24 28 33 29 27 28
32 34 36 36 37 32 30 21 21 29 31 34 16 21 29 35 37 38 36 35 29 29 28 22 19 17 17 16 17 16 16 16 18 20 20 21 22 21 19 23 21 21 24 24 21 29 35 27 23
32 32 35 36 32 27 25 18 23 28 34 40 35 25 33 37 39 41 39 33 29 32 31 24 20 17 17 16 16 17 16 14 14 15 17 19 22 21 18 21 18 20 22 21 18 16 30 22 23
32 33 36 35 31 28 25 17 26 29 36 37 38 27 32 40 41 40 34 29 29 33 33 25 21 17 14 14 12 13 14 13 13 13 16 18 21 21 18 21 16 14 18 13 7 14 14 25 24
35 33 37 35 33 33 29 22 26 33 41 42 43 40 38 38 35 36 32 25 31 33 35 25 21 19 16 14 13 12 13 14 14 13 15 18 20 21 19 20 17 11 12 16 11 9 8 21 25
38 38 38 36 34 32 28 28 25 34 44 46 34 35 46 41 40 39 36 26 31 33 33 29 22 18 17 16 13 13 12 13 14 15 16 18 19 21 19 19 16 13 11 11 11 13 8 11 16
39 41 39 39 35 33 26 30 30 33 40 49 38 39 47 47 40 43 44 35 26 33 34 30 24 19 16 17 15 15 14 13 15 16 17 19 19 21 21 19 16 14 11 10 10 13 16 14 16
40 40 40 40 40 39 32 35 38 39 37 45 57 48 50 53 47 49 49 40 24 28 35 29 27 21 17 16 16 16 17 16 16 17 18 20 20 21 21 21 17 13 13 10 12 12 15 12 15
43 45 43 40 41 41 42 40 39 43 42 42 55 57 51 57 49 52 50 44 33 26 29 33 28 26 21 19 18 17 17 18 18 18 20 20 20 20 20 20 17 12 14 11 11 13 14 15 16
43 45 42 43 44 44 44 45 40 49 47 49 54 58 56 51 52 51 51 46 38 31 35 31 31 29 24 21 21 20 19 20 20 20 21 22 22 20 20 18 17 13 14 12 12 14 16 13 18
43 38 42 44 44 46 46 46 45 45 47 56 58 56 58 54 54 52 54 52 43 37 32 28 31 30 26 23 23 21 21 21 22 21 21 23 22 21 18 18 17 12 13 14 13 15 16 17 18
39 40 41 41 42 42 42 43 47 46 47 59 62 58 59 58 57 57 53 52 48 39 32 28 31 29 29 24 25 21 21 20 23 22 21 22 21 20 18 18 17 11 12 13 12 14 14 17 18
41 41 42 42 40 40 45 47 48 49 46 51 63 65 60 63 62 58 57 53 47 37 31 30 29 29 31 27 26 25 22 20 21 22 21 21 21 19 17 18 17 10 11 12 13 14 13 14 18
47 49 46 42 42 46 41 55 53 50 48 50 62 69 64 63 62 61 57 52 50 41 39 36 32 30 31 29 28 27 26 22 20 22 21 21 21 18 16 16 18 13 10 11 12 14 14 13 20
48 50 53 46 45 44 47 54 49 47 49 53 55 67 71 62 65 64 60 54 51 41 43 40 36 31 30 30 32 31 28 25 21 21 22 21 20 20 17 16 17 16 11 13 12 13 14 13 20
53 54 54 52 49 51 51 55 51 46 48 51 50 62 68 75 68 65 60 58 54 48 44 42 41 33 29 30 34 34 29 26 23 22 24 23 20 21 19 15 16 17 14 12 14 14 15 15 15
55 57 57 59 53 63 58 59 56 54 49 48 50 48 64 67 74 72 64 61 57 55 47 43 43 36 31 31 37 36 31 28 25 25 27 24 20 21 19 15 14 17 16 15 15 17 18 17 19
56 60 62 57 58 67 66 65 60 59 57 53 48 47 46 59 58 72 69 59 60 59 48 47 43 41 33 34 35 35 32 31 29 28 29 27 22 22 20 18 14 16 17 16 16 18 20 20 19
55 61 61 61 60 68 70 72 69 61 60 51 50 48 42 48 53 62 62 58 56 52 52 50 46 43 35 35 35 37 35 31 33 31 30 29 21 24 21 20 16 17 17 17 17 19 21 21 22
53 62 67 73 72 73 73 80 75 67 65 56 48 42 39 47 50 53 61 58 54 57 55 48 45 40 39 38 36 38 37 34 33 30 31 28 26 26 22 21 19 18 19 18 19 20 22 23 24
59 65 72 70 64 64 49 75 74 70 65 60 49 39 38 45 50 52 53 56 53 52 48 52 46 43 39 37 36 37 35 35 34 33 34 32 32 28 24 23 21 19 19 20 21 22 24 24 23
64 65 57 49 44 44 42 48 56 50 59 55 47 40 39 43 52 56 57 50 46 46 51 47 43 40 37 37 37 36 36 37 37 37 36 35 33 31 26 25 23 21 20 19 23 24 25 25 25
53 44 39 38 42 44 37 43 45 34 41 45 41 36 33 38 51 59 60 58 54 49 49 48 45 42 43 40 38 37 36 36 38 39 37 37 35 34 30 28 24 24 22 20 23 25 25 26 26
30 36 43 35 41 46 43 45 40 15 27 35 34 27 37 40 41 46 52 52 50 50 46 46 47 44 42 39 39 38 34 36 39 39 38 39 38 35 33 31 26 25 25 23 23 26 27 28 27
24 36 42 41 42 48 41 43 36 10 19 22 28 27 37 37 41 46 47 49 51 49 46 46 44 39 36 37 39 38 37 39 39 38 38 39 39 37 35 32 28 27 25 25 25 26 28 28 27
24 32 32 33 33 45 37 36 8 8 27 19 21 35 33 24 34 41 41 45 48 49 45 45 40 36 38 40 40 40 39 39 37 38 39 38 40 39 35 34 32 29 27 29 28 27 28 29 29
21 28 28 25 29 41 38 20 11 3 15 15 31 44 36 28 29 27 29 33 42 38 35 37 39 41 41 42 42 41 40 40 41 41 40 40 41 38 36 36 34 30 28 29 29 29 30 31 30
22 18 23 26 27 30 36 11 2 10 11 24 40 33 17 24 25 25 24 30 32 32 38 38 37 39 41 42 42 41 41 40 41 41 41 41 41 38 37 36 37 31 30 31 30 31 31 31 31
15 29 29 30 27 27 30 14 8 10 10 31 32 28 26 24 26 24 28 31 29 30 30 37 34 34 36 38 39 38 38 38 39 40 41 40 37 37 37 37 37 34 32 30 31 33 32 32 32

GFSSGP_500_spd_132.txt.gz
Wind_Speed
29 29 29 29 30 28 21 19 22 26 25 27 28 30 30 31 30 29 21 21 21 24 30 33 35 29 26 25 22 20 17 16 18 17 18 18 19 18 18 16 16 18 19 17 16 19 17 13 17
27 28 28 29 29 27 20 23 26 27 26 27 28 29 31 32 31 29 20 21 24 25 32 34 35 31 26 25 23 21 19 17 17 18 20 21 19 17 17 16 16 17 18 15 12 15 9 10 15
26 27 29 28 27 23 21 22 24 25 26 28 28 29 31 31 34 33 27 22 24 29 35 38 36 30 26 26 23 20 18 18 18 19 20 19 17 16 17 16 15 17 16 13 11 13 10 11 15
28 29 31 31 27 23 21 23 23 25 27 29 30 30 32 33 32 32 30 28 28 33 36 41 37 33 29 27 24 20 16 16 16 16 16 16 16 16 17 17 15 16 16 13 13 13 11 8 13
33 33 36 35 30 27 25 26 27 27 26 29 31 29 34 36 36 34 37 35 37 36 38 40 38 36 31 26 25 21 16 14 14 15 15 14 15 15 17 18 16 16 18 13 14 13 9 6 6
34 34 38 35 32 29 27 31 31 32 27 30 33 32 33 38 42 43 42 43 43 42 39 39 35 37 34 28 25 22 18 15 15 16 14 13 13 14 16 17 16 16 17 13 13 12 6 6 4
34 35 36 35 32 29 29 33 34 33 32 34 36 36 38 39 41 42 47 43 44 42 36 35 31 32 33 29 27 23 20 16 16 15 14 12 11 13 16 16 16 15 15 12 10 9 6 3 4
36 37 36 32 31 32 33 35 36 36 35 36 40 40 41 42 42 45 48 54 46 48 42 40 31 31 34 30 27 23 21 17 17 15 14 12 12 13 14 16 17 15 14 12 9 8 6 5 5
34 36 35 35 36 37 36 36 35 38 41 38 40 44 45 44 44 45 48 50 46 45 38 35 29 31 34 27 24 22 22 19 16 14 12 13 12 13 15 16 18 15 12 11 8 7 7 6 5
37 37 36 39 38 40 40 39 38 40 41 41 41 45 47 46 46 48 51 54 52 50 46 36 35 27 29 23 25 26 23 21 17 15 13 12 12 13 13 16 17 15 12 11 8 10 9 6 6
39 39 40 40 41 42 42 42 42 39 40 41 43 44 50 50 49 49 50 53 52 52 47 45 37 27 24 21 22 23 24 22 19 16 14 13 13 12 12 15 16 15 12 11 10 10 11 7 6
42 40 40 41 41 43 45 44 41 40 39 40 43 47 51 55 54 53 53 55 58 51 50 49 46 41 29 27 26 26 26 23 21 18 16 15 13 12 12 13 15 16 12 10 10 10 11 5 6
39 40 42 44 46 43 44 41 41 37 39 41 41 45 51 57 58 57 57 58 59 58 56 49 52 49 39 32 28 27 27 25 23 19 17 16 15 14 13 13 14 17 14 10 10 10 12 8 5
42 43 41 41 41 43 44 41 44 44 45 41 43 43 46 54 62 62 61 63 64 60 59 58 56 53 49 39 31 26 28 27 24 21 20 16 18 15 14 13 13 15 14 11 11 10 11 12 8
41 40 41 42 43 46 47 48 48 47 49 51 47 48 48 48 61 66 66 66 68 67 59 62 58 56 51 40 37 32 32 30 27 24 21 19 19 18 16 15 13 14 15 12 11 12 13 14 11
40 44 43 43 44 46 51 47 49 50 55 57 60 57 54 54 53 66 71 73 72 72 68 60 58 58 51 41 35 38 34 32 30 27 25 22 21 21 19 17 15 13 14 14 11 11 13 15 15
43 45 45 47 47 50 51 51 47 59 63 65 66 67 63 61 57 57 69 73 76 77 74 68 68 64 59 50 35 38 37 35 33 30 27 25 24 22 22 20 19 15 14 15 13 13 12 14 18
44 45 45 47 52 55 56 55 56 59 75 76 75 71 70 69 65 59 61 69 74 76 76 70 62 63 61 56 45 38 40 38 35 31 30 29 26 26 25 23 21 19 14 15 14 14 13 13 17
45 47 49 51 54 58 61 61 64 71 78 83 87 86 82 73 73 66 62 63 68 72 75 73 71 65 61 59 49 42 38 37 36 35 32 33 31 28 27 25 23 23 18 17 17 15 16 15 15
44 47 50 52 55 62 65 66 70 75 79 85 87 88 89 88 78 75 68 64 65 69 72 75 74 67 64 63 55 46 37 39 39 40 36 36 34 32 30 27 25 27 24 20 20 17 17 17 16
44 48 51 56 58 62 70 72 76 76 72 69 63 65 71 83 86 85 77 70 64 67 65 72 74 68 62 64 59 52 47 46 43 43 40 37 35 35 33 31 27 30 27 24 21 20 20 18 18
44 48 54 58 62 66 71 77 78 62 56 57 61 66 68 75 77 75 83 72 67 65 64 59 69 75 72 67 62 57 49 47 42 38 37 39 41 40 35 33 31 31 30 27 25 23 23 21 20
45 50 55 59 62 67 68 62 59 50 55 55 35 48 50 47 55 65 73 75 65 65 64 61 59 75 81 69 66 59 54 47 45 43 41 39 45 44 39 36 35 31 31 28 28 28 26 24 23
48 52 54 57 58 63 52 48 42 47 47 31 38 37 32 28 32 40 49 73 65 65 64 60 60 65 76 73 68 64 53 50 50 46 44 44 47 48 44 38 36 34 31 30 29 31 29 28 26
47 51 56 57 60 63 40 40 40 47 42 38 40 41 29 22 20 23 34 66 63 61 58 60 60 61 63 70 71 68 59 56 53 52 48 46 51 53 46 40 37 35 32 32 31 31 31 32 31
48 53 53 55 59 60 26 39 47 37 31 34 32 34 24 20 10 11 31 54 54 48 48 55 57 56 57 66 66 70 73 59 54 48 49 48 54 51 48 42 39 38 36 33 34 33 31 34 32
46 48 51 53 50 40 32 35 33 26 22 25 27 30 18 15 5 16 28 36 44 47 48 49 51 53 55 63 66 61 58 54 51 50 51 54 52 49 47 45 43 41 37 35 34 34 32 33 33
43 46 47 46 39 36 29 35 36 27 15 21 15 28 19 13 12 20 30 39 40 41 45 47 54 59 52 54 58 65 60 61 56 54 51 49 50 51 48 46 43 41 38 37 36 36 33 33 33
43 45 44 43 29 33 33 34 38 30 24 25 33 29 25 14 11 17 23 29 29 33 33 43 49 57 54 53 53 52 54 53 53 50 48 47 49 53 51 45 41 42 39 39 38 37 35 34 35
40 42 41 36 28 27 33 34 35 30 27 25 30 25 24 11 14 19 25 26 26 25 26 34 42 43 53 52 54 44 51 53 53 51 44 41 49 52 48 44 41 41 41 40 39 39 36 37 36

GFSSGP_500_spd_135.txt.gz
Wind_Speed
24 23 23 22 21 19 17 19 23 26 25 25 26 28 28 28 27 26 25 18 14 16 19 25 28 30 27 22 23 22 19 15 15 14 14 14 16 18 17 16 17 16 17 15 13 11 15 12 12
23 22 21 22 20 16 15 18 21 23 22 23 25 24 24 27 27 26 27 24 19 18 20 24 29 32 30 28 24 23 19 15 16 16 15 15 15 15 16 16 16 15 15 14 12 9 10 11 11
24 24 23 22 20 18 17 19 22 24 24 25 24 22 24 25 28 28 29 32 30 28 27 27 31 31 32 29 27 25 20 15 14 15 15 14 11 13 15 16 15 13 13 12 11 11 12 12 12
27 28 28 28 24 20 22 23 25 27 27 28 24 26 25 25 28 30 30 32 30 27 30 31 33 33 35 31 26 24 22 16 13 12 11 12 11 12 14 16 15 14 13 12 10 11 11 9 10
28 29 31 28 25 23 25 27 29 28 30 30 29 25 26 27 28 31 34 34 37 34 33 34 35 38 36 31 26 23 21 17 14 12 12 12 13 12 13 14 14 14 14 11 10 10 9 9 10
29 29 30 27 23 22 23 29 30 30 29 32 33 31 28 29 30 33 38 38 40 40 42 38 38 37 33 29 24 21 19 17 15 13 12 11 11 10 13 13 13 15 14 10 8 8 10 7 7
28 30 30 29 25 23 25 29 28 27 29 32 34 34 35 33 32 33 36 40 43 45 46 47 40 35 35 32 23 20 18 16 15 14 12 11 9 9 11 12 12 15 13 10 8 8 8 6 6
29 31 29 28 27 25 28 28 28 31 31 32 35 37 36 37 37 36 38 41 44 45 45 48 47 43 42 38 28 18 17 15 15 15 12 12 10 9 9 10 13 13 12 11 8 6 6 7 7
31 33 31 31 29 27 27 29 32 33 33 34 34 37 38 39 40 40 41 43 44 44 44 45 44 42 40 33 32 20 16 15 16 15 14 13 11 10 9 9 12 11 12 10 6 5 7 7 8
35 34 35 34 34 34 31 32 33 34 35 34 35 37 38 40 41 43 44 44 45 46 45 45 45 44 41 36 33 28 19 18 16 16 16 15 13 10 10 8 11 11 12 10 9 5 8 8 8
37 36 36 36 37 38 36 34 35 35 32 37 35 35 38 40 43 42 46 46 46 46 45 41 43 44 42 38 32 31 23 19 18 18 17 17 15 13 10 8 8 10 12 9 9 6 10 9 9
38 38 38 39 40 40 41 39 37 36 37 35 35 35 36 40 43 44 45 50 51 49 47 45 42 45 44 41 34 32 28 24 22 20 19 17 17 15 13 11 8 9 11 9 9 7 8 9 12
40 40 41 39 39 42 42 41 44 34 35 36 37 36 37 38 42 46 46 49 54 56 55 54 49 42 45 44 40 32 30 30 26 22 21 18 18 16 14 14 11 9 10 10 8 8 6 9 12
41 40 39 39 43 46 44 39 40 39 38 39 41 41 39 39 41 44 52 51 55 58 61 60 59 55 46 48 50 40 33 35 32 26 24 21 20 19 15 15 14 10 10 10 9 9 8 7 11
42 41 44 47 42 38 40 45 40 41 44 46 46 46 46 46 45 45 51 57 59 59 63 66 66 62 58 56 52 48 36 33 36 32 27 24 22 21 18 17 16 14 12 11 10 10 10 9 9
44 44 42 38 39 40 43 39 41 42 47 48 51 53 53 53 54 55 52 57 65 63 65 68 70 69 65 60 54 48 43 37 37 36 33 28 25 23 22 20 19 16 14 13 12 11 11 9 9
39 40 40 39 41 42 41 39 45 53 54 53 56 57 59 59 61 64 61 59 64 71 70 69 71 71 68 61 59 56 45 36 39 41 38 33 28 26 24 23 21 18 17 16 14 12 11 12 9
37 40 41 42 40 40 43 43 46 55 57 59 62 66 71 74 75 76 71 69 62 70 74 76 75 72 69 68 64 60 46 41 36 39 41 38 31 29 26 26 24 20 20 18 16 14 12 13 12
39 40 41 40 42 46 46 44 46 53 65 65 71 77 82 86 88 89 89 85 78 68 76 78 81 78 70 71 67 64 60 52 39 37 40 38 36 31 28 28 27 22 22 21 19 17 15 14 14
39 40 39 42 43 46 46 44 49 58 62 72 79 85 91 94 92 89 87 90 87 78 74 78 81 84 78 72 67 63 61 51 44 40 40 40 39 35 31 29 29 26 25 24 22 21 18 17 16
37 38 39 42 45 46 49 48 52 63 70 79 84 85 82 74 62 48 49 55 66 75 77 80 77 80 83 75 70 65 64 53 50 43 43 42 39 36 33 30 30 29 27 26 26 24 22 20 19
36 37 38 41 44 46 51 54 59 68 75 78 75 71 66 53 47 53 47 51 60 64 79 82 79 74 79 76 74 69 54 55 52 46 37 41 39 38 37 35 31 31 29 28 29 27 25 22 21
35 36 38 39 42 46 53 58 63 71 71 64 60 64 37 33 50 49 44 46 39 55 70 82 78 71 71 76 73 69 65 61 54 52 44 45 40 40 36 40 34 33 31 30 31 30 27 26 24
35 35 37 39 42 46 54 59 63 60 58 58 61 41 35 45 47 38 42 38 29 42 63 80 76 69 67 66 71 70 61 61 59 52 51 49 42 41 39 43 40 34 34 33 33 33 30 29 26
34 34 37 40 43 45 51 55 53 45 49 50 51 36 38 39 38 39 36 25 17 25 52 73 72 65 63 55 59 63 65 60 58 55 54 51 47 45 41 44 44 39 37 37 34 33 33 32 28
33 34 35 39 42 46 47 47 40 41 39 34 32 38 43 44 30 32 26 16 3 19 52 67 67 61 56 54 47 52 56 66 59 56 57 56 52 48 44 48 47 44 40 40 37 35 36 34 31
32 34 35 39 43 47 46 45 32 35 32 24 27 35 36 35 22 25 21 6 16 18 44 54 57 55 54 46 49 49 52 56 62 58 53 56 55 53 52 53 51 47 44 43 40 38 38 35 32
31 32 34 37 42 46 46 39 32 33 21 16 24 31 34 38 15 16 16 6 13 26 41 44 47 49 46 42 45 47 50 53 58 64 58 56 59 60 58 59 52 48 48 46 43 42 41 37 34
31 31 32 37 41 41 46 31 29 35 31 19 28 37 35 32 12 8 12 2 14 28 35 39 41 39 39 40 45 49 50 53 56 63 63 66 60 66 63 60 52 53 51 47 47 45 41 38 37
31 30 30 35 37 36 34 22 28 35 24 20 25 36 33 24 23 6 3 10 18 27 32 34 33 35 41 43 46 46 53 47 56 61 60 64 60 65 64 60 57 55 50 49 49 43 41 39 38

GFSSGP_500_spd_138.txt.gz
Wind_Speed
20 20 18 18 17 14 12 14 17 19 20 20 22 23 24 24 22 24 25 25 26 23 21 25 27 27 26 21 22 22 22 19 14 14 14 12 12 12 10 11 12 13 13 14 13 12 11 12 14
19 18 18 17 16 13 12 17 20 20 19 19 21 20 20 22 22 22 23 25 22 25 24 25 25 28 27 25 28 25 21 20 15 13 14 12 11 10 9 11 13 13 12 13 12 12 12 14 15
22 21 21 19 17 16 17 19 21 22 21 21 23 21 20 20 22 22 23 25 25 28 27 27 26 28 29 28 30 26 19 19 16 11 10 9 7 7 7 10 12 13 12 12 12 11 11 14 14
24 25 25 24 21 20 23 23 23 26 26 24 23 25 23 22 23 23 25 26 26 27 29 31 29 29 31 29 28 25 20 18 15 11 8 7 6 7 9 10 11 12 12 11 12 12 12 11 12
28 28 28 25 23 23 25 26 26 29 29 27 27 26 28 24 23 25 26 27 28 31 33 33 34 34 34 34 29 25 23 18 15 12 8 6 6 7 9 10 11 10 12 11 11 13 11 11 12
26 24 25 24 24 23 26 28 29 29 29 29 28 29 30 28 27 25 28 30 31 32 35 38 37 37 36 34 34 31 26 18 17 13 10 6 5 6 8 10 10 11 12 10 10 11 9 6 8
25 23 22 23 23 24 28 29 28 27 29 29 27 30 32 30 28 29 28 31 33 34 36 38 39 38 35 33 31 33 28 24 17 14 10 7 7 7 8 9 10 11 12 11 10 11 8 6 6
27 26 23 24 24 24 25 26 26 27 28 29 31 33 32 33 33 32 32 33 35 36 36 37 38 38 38 35 31 27 28 26 21 16 11 8 9 9 9 9 10 11 12 10 9 9 8 6 7
29 28 28 30 30 29 28 27 28 28 28 32 33 33 32 34 35 37 36 37 39 38 38 38 39 38 40 38 35 30 26 25 26 21 16 11 10 10 12 11 10 11 12 12 8 6 9 6 7
31 32 33 34 33 32 30 29 30 30 32 34 34 35 35 33 34 39 40 40 41 42 41 41 40 42 40 40 38 33 28 23 27 27 22 17 13 12 12 13 12 12 11 11 10 6 10 7 11
31 33 35 35 35 34 32 33 33 34 36 35 34 35 35 35 36 38 41 42 43 44 46 44 44 43 42 39 40 36 30 26 22 26 27 20 18 15 14 14 14 12 12 10 9 7 10 12 12
30 32 33 35 36 37 37 35 35 36 35 34 34 34 36 37 36 36 37 41 43 46 46 48 47 46 45 43 42 39 35 29 25 27 30 24 21 18 16 15 15 13 14 11 9 10 11 10 11
30 31 34 35 37 38 37 37 37 35 35 36 34 32 33 33 36 36 39 40 43 47 49 50 51 50 50 48 46 44 40 33 29 29 30 29 24 21 18 17 17 16 15 12 10 10 11 11 10
33 36 37 38 38 38 38 40 42 34 33 34 34 34 35 36 37 39 41 44 46 46 49 53 55 54 54 52 53 46 46 41 34 29 32 31 29 26 22 19 18 16 17 14 12 11 10 13 10
35 36 36 37 38 40 42 37 33 36 36 33 34 35 37 39 41 42 42 44 47 51 52 53 56 59 58 58 56 55 48 48 42 38 34 33 32 31 26 22 20 18 18 17 14 13 11 14 11
32 34 36 35 37 38 36 37 34 35 37 36 37 40 41 43 45 48 48 49 49 51 56 59 58 60 62 62 60 57 56 56 49 43 34 34 36 34 31 26 22 20 18 18 17 15 13 13 13
32 33 32 34 33 34 36 35 35 37 40 41 43 45 46 49 50 52 54 57 59 58 56 61 66 64 65 65 66 64 61 58 57 47 42 38 39 37 35 31 25 22 20 19 19 17 15 13 13
34 33 33 33 34 35 33 36 39 41 42 46 49 51 53 56 59 62 66 70 72 72 72 69 63 70 69 70 68 68 65 64 59 53 48 41 43 40 37 35 29 26 22 21 20 19 17 15 14
32 33 35 33 35 37 34 35 41 42 46 49 51 55 59 62 68 74 79 85 87 89 90 81 80 75 71 75 75 72 68 66 62 53 46 42 41 43 39 38 33 29 25 24 20 21 19 17 16
34 35 36 36 36 38 38 38 41 42 46 50 54 61 67 72 78 84 89 91 95 95 83 87 75 78 78 78 79 77 71 66 60 57 51 48 40 41 42 38 36 34 29 26 23 22 21 20 18
36 36 36 37 36 37 36 39 42 45 51 54 58 64 71 78 83 90 82 57 50 55 54 54 64 80 88 85 83 81 75 70 69 62 55 50 43 43 43 38 38 36 33 29 26 24 22 23 20
38 35 37 36 36 35 35 39 43 46 51 56 62 67 75 74 71 54 41 44 45 46 56 59 60 64 95 87 83 84 81 78 66 65 58 52 46 46 42 37 41 39 37 32 29 28 26 21 22
37 35 35 34 34 34 36 37 44 47 52 58 62 70 66 60 52 42 47 53 47 48 51 57 63 69 83 88 83 82 78 74 69 66 55 51 51 46 41 39 42 41 37 35 31 30 28 25 24
35 34 34 33 33 35 34 37 43 49 55 58 63 66 52 41 40 50 55 40 43 54 50 50 52 60 77 83 80 77 75 73 72 54 57 54 48 46 42 41 42 44 39 35 32 33 32 29 27
33 32 33 34 33 34 34 37 42 48 55 62 60 55 40 37 46 50 38 36 48 44 42 40 42 50 70 73 75 71 70 66 68 66 64 64 47 50 48 45 44 43 44 38 34 34 34 31 30
32 30 31 32 33 33 34 36 41 47 53 46 41 44 33 38 39 43 33 37 38 31 29 20 23 48 55 65 66 61 63 62 62 67 62 50 45 48 49 46 44 46 48 45 39 37 35 33 32
31 31 31 30 31 33 35 37 41 43 47 39 35 31 30 36 35 35 26 27 27 16 7 12 24 42 51 58 54 54 53 55 56 58 53 53 51 59 56 48 49 50 52 50 47 41 38 36 35
32 31 30 29 30 33 35 36 37 38 41 39 35 29 26 30 30 40 29 17 18 8 9 15 31 38 48 52 50 47 46 47 48 54 58 52 52 58 53 57 51 52 53 56 52 46 41 38 38
32 29 28 28 28 33 33 35 36 36 38 33 29 21 24 34 35 41 17 6 11 5 12 19 27 36 42 43 42 43 46 44 43 47 53 56 57 59 55 54 61 59 59 60 53 49 45 43 40
31 28 27 26 31 30 32 34 33 28 29 28 21 24 25 33 34 32 27 13 5 5 11 16 21 32 38 38 37 38 42 45 44 45 46 54 55 60 61 63 57 62 63 60 55 52 50 47 43